| time (UTC) | temp C | wind direction | speed KPH | gust KPH | rain 1hr cm | rain 24hr cm | rain mn cm | humidity % | barometer mb |
| 20260506192523 | 13 | 190 | 6.4 | 16.1 | 0.00 | 0.10 | 0.10 | 95 | 1012.8 |
| 20260506192018 | 13 | 247 | 4.8 | 11.3 | 0.00 | 0.10 | 0.10 | 95 | 1012.9 |
| 20260506191516 | 13 | 228 | 9.7 | 24.1 | 0.00 | 0.10 | 0.10 | 95 | 1012.8 |
| 20260506191012 | 13 | 210 | 3.2 | 12.9 | 0.00 | 0.10 | 0.10 | 95 | 1013.0 |
| 20260506190509 | 13 | 230 | 14.5 | 20.9 | 0.00 | 0.10 | 0.10 | 96 | 1012.9 |
| 20260506190006 | 13 | 230 | 4.8 | 14.5 | 0.00 | 0.10 | 0.10 | 96 | 1012.7 |
| 20260506185503 | 13 | 209 | 8.0 | 14.5 | 0.00 | 0.10 | 0.10 | 96 | 1013.0 |
| 20260506184959 | 13 | 256 | 8.0 | 20.9 | 0.00 | 0.10 | 0.10 | 96 | 1013.1 |
| 20260506184457 | 13 | 211 | 6.4 | 22.5 | 0.00 | 0.10 | 0.10 | 96 | 1013.1 |
| 20260506183954 | 13 | 226 | 6.4 | 20.9 | 0.00 | 0.10 | 0.10 | 96 | 1013.3 |
| 20260506183449 | 13 | 245 | 14.5 | 17.7 | 0.00 | 0.10 | 0.10 | 96 | 1013.5 |
| 20260506182941 | 13 | 219 | 9.7 | 12.9 | 0.00 | 0.10 | 0.10 | 96 | 1013.5 |
| 20260506182438 | 13 | 226 | 16.1 | 24.1 | 0.00 | 0.10 | 0.10 | 96 | 1013.4 |
| 20260506181936 | 13 | 202 | 11.3 | 14.5 | 0.00 | 0.10 | 0.10 | 97 | 1013.6 |
| 20260506181434 | 13 | 179 | 9.7 | 14.5 | 0.18 | 0.10 | 0.10 | 97 | 1013.6 |
| 20260506180930 | 13 | 237 | 8.0 | 17.7 | 0.18 | 0.10 | 0.10 | 97 | 1013.7 |
| 20260506180426 | 13 | 210 | 3.2 | 14.5 | 0.00 | 0.08 | 0.08 | 97 | 1013.7 |
| 20260506175923 | 13 | 260 | 8.0 | 12.9 | 0.00 | 0.08 | 0.08 | 97 | 1013.9 |
| 20260506175419 | 13 | 213 | 17.7 | 22.5 | 0.13 | 0.08 | 0.08 | 97 | 1013.8 |
| 20260506174916 | 13 | 228 | 11.3 | 20.9 | 0.13 | 0.08 | 0.08 | 97 | 1014.0 |
| 20260506174414 | 13 | 222 | 19.3 | 22.5 | 0.18 | 0.05 | 0.05 | 96 | 1014.3 |
| 20260506173911 | 13 | 238 | 4.8 | 14.5 | 0.00 | 0.03 | 0.03 | 96 | 1014.2 |
| 20260506173408 | 13 | 189 | 6.4 | 20.9 | 0.13 | 0.03 | 0.03 | 96 | 1014.3 |
| 20260506172905 | 13 | 219 | 11.3 | 22.5 | 0.13 | 0.03 | 0.03 | 96 | 1014.4 |
| 20260506172401 | 13 | 197 | 9.7 | 24.1 | 0.00 | 0.00 | 0.00 | 95 | 1014.2 |
| 20260506171859 | 13 | 181 | 3.2 | 11.3 | 0.00 | 0.00 | 0.00 | 95 | 1014.5 |
| 20260506171356 | 13 | 186 | 11.3 | 16.1 | 0.00 | 0.00 | 0.00 | 95 | 1014.5 |
| 20260506170853 | 13 | 215 | 6.4 | 22.5 | 0.00 | 0.00 | 0.00 | 94 | 1014.5 |
| 20260506170349 | 13 | 231 | 9.7 | 27.4 | 0.00 | 0.00 | 0.00 | 94 | 1014.9 |
| 20260506165843 | 13 | 248 | 6.4 | 14.5 | 0.00 | 0.00 | 0.00 | 93 | 1015.0 |
| 20260506165340 | 14 | 208 | 6.4 | 20.9 | 0.00 | 0.00 | 0.00 | 91 | 1014.7 |
| 20260506164836 | 14 | 261 | 9.7 | 11.3 | 0.00 | 0.00 | 0.00 | 91 | 1014.7 |
| 20260506164333 | 14 | 221 | 14.5 | 22.5 | 0.00 | 0.00 | 0.00 | 91 | 1014.8 |
| 20260506163831 | 14 | 244 | 9.7 | 17.7 | 0.00 | 0.00 | 0.00 | 91 | 1014.8 |
| 20260506163325 | 14 | 221 | 9.7 | 14.5 | 0.00 | 0.00 | 0.00 | 91 | 1014.9 |
| 20260506162821 | 14 | 247 | 12.9 | 16.1 | 0.00 | 0.00 | 0.00 | 90 | 1015.0 |
| 20260506162319 | 15 | 206 | 11.3 | 16.1 | 0.00 | 0.00 | 0.00 | 90 | 1015.0 |
| 20260506161817 | 15 | 257 | 12.9 | 16.1 | 0.00 | 0.00 | 0.00 | 89 | 1015.1 |
| 20260506161314 | 14 | 229 | 9.7 | 25.7 | 0.00 | 0.00 | 0.00 | 89 | 1015.2 |
| 20260506160811 | 14 | 207 | 3.2 | 16.1 | 0.00 | 0.00 | 0.00 | 90 | 1015.0 |
| 20260506160307 | 14 | 236 | 8.0 | 33.8 | 0.00 | 0.00 | 0.00 | 89 | 1015.3 |
| 20260506155806 | 15 | 199 | 14.5 | 17.7 | 0.00 | 0.00 | 0.00 | 89 | 1015.2 |
| 20260506155305 | 14 | 205 | 8.0 | 27.4 | 0.00 | 0.00 | 0.00 | 89 | 1015.1 |
| 20260506153410 | 15 | 206 | 11.3 | 22.5 | 0.00 | 0.00 | 0.00 | 88 | 1015.5 |
| 20260506152907 | 15 | 231 | 11.3 | 16.1 | 0.00 | 0.00 | 0.00 | 88 | 1015.5 |
| 20260506152404 | 15 | 245 | 11.3 | 16.1 | 0.00 | 0.00 | 0.00 | 88 | 1015.3 |
| 20260506151903 | 15 | 225 | 22.5 | 25.7 | 0.00 | 0.00 | 0.00 | 88 | 1015.6 |
| 20260506151359 | 15 | 256 | 8.0 | 14.5 | 0.00 | 0.00 | 0.00 | 88 | 1015.4 |
| 20260506150857 | 15 | 260 | 3.2 | 22.5 | 0.00 | 0.00 | 0.00 | 88 | 1015.3 |
| 20260506150353 | 15 | 216 | 9.7 | 17.7 | 0.00 | 0.00 | 0.00 | 88 | 1015.3 |
| 20260506145850 | 15 | 159 | 14.5 | 24.1 | 0.00 | 0.00 | 0.00 | 88 | 1015.2 |
| 20260506145346 | 15 | 234 | 17.7 | 24.1 | 0.00 | 0.00 | 0.00 | 88 | 1015.3 |
| 20260506144844 | 15 | 238 | 9.7 | 16.1 | 0.00 | 0.00 | 0.00 | 88 | 1015.5 |
| 20260506144340 | 15 | 269 | 6.4 | 14.5 | 0.00 | 0.00 | 0.00 | 88 | 1015.4 |
| 20260506143839 | 15 | 182 | 8.0 | 16.1 | 0.00 | 0.00 | 0.00 | 88 | 1015.7 |
| 20260506143335 | 15 | 243 | 4.8 | 25.7 | 0.00 | 0.00 | 0.00 | 88 | 1015.7 |
| 20260506142834 | 15 | 199 | 6.4 | 25.7 | 0.00 | 0.00 | 0.00 | 88 | 1015.9 |
| 20260506142331 | 15 | 232 | 11.3 | 22.5 | 0.00 | 0.00 | 0.00 | 87 | 1015.9 |
| 20260506141829 | 15 | 238 | 6.4 | 12.9 | 0.00 | 0.00 | 0.00 | 87 | 1015.8 |
| 20260506141327 | 15 | 206 | 14.5 | 17.7 | 0.00 | 0.00 | 0.00 | 86 | 1015.8 |
| 20260506140825 | 16 | 256 | 16.1 | 20.9 | 0.00 | 0.00 | 0.00 | 85 | 1015.8 |
| 20260506140321 | 15 | 255 | 12.9 | 24.1 | 0.00 | 0.00 | 0.00 | 86 | 1015.9 |
| 20260506135818 | 15 | 246 | 11.3 | 24.1 | 0.00 | 0.00 | 0.00 | 86 | 1016.0 |
| 20260506135315 | 15 | 244 | 6.4 | 17.7 | 0.00 | 0.00 | 0.00 | 87 | 1016.0 |
| 20260506134811 | 15 | 262 | 16.1 | 25.7 | 0.00 | 0.00 | 0.00 | 88 | 1016.1 |
| 20260506134308 | 15 | 234 | 4.8 | 16.1 | 0.00 | 0.00 | 0.00 | 88 | 1016.0 |
| 20260506133805 | 15 | 209 | 8.0 | 17.7 | 0.00 | 0.00 | 0.00 | 87 | 1016.1 |
| 20260506133302 | 15 | 256 | 6.4 | 22.5 | 0.00 | 0.00 | 0.00 | 86 | 1016.0 |
| 20260506132758 | 15 | 277 | 19.3 | 25.7 | 0.00 | 0.00 | 0.00 | 86 | 1016.0 |
| 20260506132256 | 15 | 236 | 4.8 | 14.5 | 0.00 | 0.00 | 0.00 | 87 | 1016.0 |
| 20260506131754 | 15 | 211 | 4.8 | 17.7 | 0.00 | 0.00 | 0.00 | 88 | 1016.1 |
| 20260506131249 | 15 | 212 | 3.2 | 6.4 | 0.00 | 0.00 | 0.00 | 88 | 1015.9 |
| 20260506130746 | 15 | 221 | 4.8 | 17.7 | 0.00 | 0.00 | 0.00 | 90 | 1015.9 |
| 20260506130243 | 14 | 223 | 6.4 | 12.9 | 0.00 | 0.00 | 0.00 | 90 | 1015.8 |
| 20260506125741 | 15 | 247 | 6.4 | 11.3 | 0.00 | 0.00 | 0.00 | 90 | 1015.9 |
| 20260506125239 | 15 | 250 | 8.0 | 17.7 | 0.00 | 0.00 | 0.00 | 89 | 1015.8 |
| 20260506124737 | 15 | 162 | 1.6 | 17.7 | 0.00 | 0.00 | 0.00 | 89 | 1016.0 |
| 20260506124234 | 15 | 227 | 14.5 | 17.7 | 0.00 | 0.00 | 0.00 | 88 | 1015.9 |
| 20260506123732 | 15 | 241 | 9.7 | 25.7 | 0.00 | 0.00 | 0.00 | 89 | 1016.0 |
| 20260506123230 | 15 | 244 | 14.5 | 20.9 | 0.00 | 0.00 | 0.00 | 88 | 1016.1 |
| 20260506122727 | 15 | 221 | 17.7 | 24.1 | 0.00 | 0.00 | 0.00 | 88 | 1016.0 |
| 20260506122224 | 15 | 229 | 9.7 | 17.7 | 0.00 | 0.00 | 0.00 | 89 | 1016.3 |
| 20260506121722 | 15 | 227 | 6.4 | 22.5 | 0.00 | 0.00 | 0.00 | 90 | 1016.4 |
| 20260506121218 | 15 | 195 | 12.9 | 16.1 | 0.00 | 0.00 | 0.00 | 90 | 1016.3 |
| 20260506120716 | 15 | 209 | 6.4 | 14.5 | 0.00 | 0.00 | 0.00 | 89 | 1016.3 |
| 20260506120214 | 15 | 232 | 6.4 | 14.5 | 0.00 | 0.00 | 0.00 | 89 | 1016.3 |
| 20260506115712 | 15 | 210 | 9.7 | 20.9 | 0.00 | 0.00 | 0.00 | 90 | 1016.1 |
| 20260506115209 | 15 | 209 | 14.5 | 20.9 | 0.00 | 0.00 | 0.00 | 90 | 1016.1 |
| 20260506114707 | 15 | 230 | 9.7 | 20.9 | 0.00 | 0.00 | 0.00 | 90 | 1016.0 |
| 20260506114204 | 15 | 221 | 3.2 | 16.1 | 0.00 | 0.00 | 0.00 | 90 | 1016.1 |
| 20260506113703 | 14 | 238 | 6.4 | 16.1 | 0.00 | 0.00 | 0.00 | 91 | 1016.0 |
| 20260506113200 | 14 | 204 | 9.7 | 16.1 | 0.00 | 0.00 | 0.00 | 91 | 1016.2 |
| 20260506112655 | 14 | 253 | 8.0 | 14.5 | 0.00 | 0.00 | 0.00 | 91 | 1016.3 |
| 20260506112154 | 14 | 203 | 6.4 | 9.7 | 0.00 | 0.00 | 0.00 | 92 | 1016.3 |
| 20260506111651 | 13 | 245 | 8.0 | 17.7 | 0.00 | 0.00 | 0.00 | 92 | 1016.4 |
| 20260506111149 | 13 | 249 | 14.5 | 16.1 | 0.00 | 0.00 | 0.00 | 93 | 1016.2 |
| 20260506110646 | 13 | 236 | 6.4 | 12.9 | 0.00 | 0.00 | 0.00 | 93 | 1016.3 |
| 20260506110143 | 13 | 206 | 4.8 | 16.1 | 0.00 | 0.00 | 0.00 | 94 | 1016.2 |
| 20260506105640 | 13 | 193 | 4.8 | 14.5 | 0.00 | 0.00 | 0.00 | 93 | 1016.2 |
| 20260506105137 | 13 | 249 | 14.5 | 17.7 | 0.00 | 0.00 | 0.00 | 93 | 1016.3 |
| 20260506104634 | 13 | 195 | 11.3 | 17.7 | 0.00 | 0.00 | 0.00 | 93 | 1016.0 |
| 20260506104132 | 13 | 240 | 6.4 | 16.1 | 0.00 | 0.00 | 0.00 | 93 | 1015.9 |
| 20260506103629 | 13 | 239 | 8.0 | 11.3 | 0.00 | 0.00 | 0.00 | 93 | 1015.9 |
| 20260506103126 | 13 | 219 | 8.0 | 11.3 | 0.00 | 0.00 | 0.00 | 94 | 1016.0 |
| 20260506102624 | 13 | 246 | 6.4 | 17.7 | 0.00 | 0.00 | 0.00 | 94 | 1015.9 |
| 20260506102121 | 13 | 206 | 6.4 | 17.7 | 0.00 | 0.00 | 0.00 | 94 | 1015.9 |
| 20260506101618 | 13 | 134 | 4.8 | 9.7 | 0.00 | 0.00 | 0.00 | 94 | 1015.8 |
| 20260506101114 | 13 | 229 | 8.0 | 27.4 | 0.00 | 0.00 | 0.00 | 94 | 1015.9 |
| 20260506100613 | 13 | 204 | 6.4 | 16.1 | 0.00 | 0.00 | 0.00 | 94 | 1015.7 |
| 20260506100110 | 13 | 217 | 11.3 | 24.1 | 0.00 | 0.00 | 0.00 | 94 | 1015.6 |
| 20260506095609 | 13 | 242 | 3.2 | 22.5 | 0.00 | 0.00 | 0.00 | 94 | 1016.1 |
| 20260506095105 | 13 | 232 | 6.4 | 16.1 | 0.00 | 0.00 | 0.00 | 95 | 1015.9 |
| 20260506094603 | 13 | 215 | 6.4 | 25.7 | 0.00 | 0.00 | 0.00 | 95 | 1015.9 |
| 20260506094101 | 13 | 250 | 9.7 | 17.7 | 0.00 | 0.00 | 0.00 | 95 | 1016.0 |
| 20260506093559 | 13 | 243 | 9.7 | 17.7 | 0.00 | 0.00 | 0.00 | 95 | 1015.8 |
| 20260506093056 | 13 | 233 | 3.2 | 16.1 | 0.00 | 0.00 | 0.00 | 95 | 1015.9 |
| 20260506092554 | 13 | 207 | 12.9 | 16.1 | 0.00 | 0.00 | 0.00 | 95 | 1015.8 |
| 20260506092050 | 13 | 246 | 9.7 | 16.1 | 0.00 | 0.00 | 0.00 | 95 | 1016.0 |
| 20260506091549 | 13 | 246 | 4.8 | 11.3 | 0.00 | 0.00 | 0.00 | 95 | 1015.9 |
| 20260506091046 | 13 | 213 | 11.3 | 12.9 | 0.00 | 0.00 | 0.00 | 95 | 1016.0 |
| 20260506090543 | 13 | 246 | 6.4 | 11.3 | 0.00 | 0.00 | 0.00 | 95 | 1016.1 |
| 20260506090039 | 13 | 165 | 6.4 | 14.5 | 0.00 | 0.00 | 0.00 | 95 | 1016.0 |
| 20260506085536 | 13 | 224 | 6.4 | 14.5 | 0.00 | 0.00 | 0.00 | 94 | 1016.1 |
| 20260506085033 | 13 | 222 | 3.2 | 12.9 | 0.00 | 0.00 | 0.00 | 94 | 1016.1 |
| 20260506084530 | 13 | 245 | 3.2 | 12.9 | 0.00 | 0.00 | 0.00 | 94 | 1016.2 |
| 20260506084026 | 13 | 249 | 6.4 | 12.9 | 0.00 | 0.00 | 0.00 | 94 | 1016.2 |
| 20260506083523 | 13 | 226 | 8.0 | 14.5 | 0.00 | 0.00 | 0.00 | 94 | 1016.1 |
| 20260506083021 | 13 | 184 | 4.8 | 20.9 | 0.00 | 0.00 | 0.00 | 94 | 1016.0 |
| 20260506082517 | 13 | 240 | 14.5 | 16.1 | 0.00 | 0.00 | 0.00 | 94 | 1016.1 |
| 20260506082013 | 13 | 229 | 9.7 | 14.5 | 0.00 | 0.00 | 0.00 | 93 | 1016.3 |
| 20260506081511 | 13 | 254 | 9.7 | 20.9 | 0.00 | 0.00 | 0.00 | 93 | 1016.0 |
| 20260506081008 | 13 | 210 | 11.3 | 22.5 | 0.00 | 0.00 | 0.00 | 93 | 1016.3 |
| 20260506080506 | 13 | 216 | 14.5 | 17.7 | 0.00 | 0.00 | 0.00 | 93 | 1016.2 |
| 20260506073449 | 13 | 239 | 3.2 | 14.5 | 0.00 | 0.00 | 0.00 | 92 | 1016.5 |
| 20260506072946 | 13 | 227 | 14.5 | 22.5 | 0.00 | 0.00 | 0.00 | 92 | 1016.5 |
| 20260506072444 | 13 | 246 | 14.5 | 16.1 | 0.00 | 0.00 | 0.00 | 92 | 1016.4 |
| 20260506071942 | 13 | 235 | 12.9 | 25.7 | 0.00 | 0.00 | 0.00 | 91 | 1016.5 |
| 20260506071439 | 13 | 243 | 6.4 | 30.6 | 0.00 | 0.00 | 0.00 | 91 | 1016.7 |
| 20260506070936 | 13 | 201 | 9.7 | 22.5 | 0.00 | 0.00 | 0.00 | 91 | 1016.5 |
| 20260506070433 | 13 | 238 | 11.3 | 14.5 | 0.00 | 0.00 | 0.00 | 91 | 1016.5 |
| 20260506062410 | 14 | 222 | 8.0 | 14.5 | 0.00 | 0.00 | 0.00 | 90 | 1016.4 |
| 20260506061906 | 14 | 221 | 6.4 | 17.7 | 0.00 | 0.00 | 0.00 | 90 | 1016.4 |
| 20260506061403 | 14 | 211 | 12.9 | 20.9 | 0.00 | 0.00 | 0.00 | 90 | 1016.4 |
| 20260506060901 | 14 | 242 | 6.4 | 11.3 | 0.00 | 0.00 | 0.00 | 89 | 1016.4 |
| 20260506060359 | 14 | 223 | 9.7 | 24.1 | 0.00 | 0.00 | 0.00 | 89 | 1016.4 |
| 20260506051330 | 14 | 233 | 12.9 | 17.7 | 0.00 | 0.00 | 0.00 | 88 | 1016.7 |
| 20260506050828 | 14 | 206 | 12.9 | 22.5 | 0.00 | 0.00 | 0.00 | 88 | 1016.7 |
| 20260506050325 | 14 | 223 | 9.7 | 22.5 | 0.00 | 0.00 | 0.00 | 88 | 1016.5 |
| 20260506044816 | 14 | 239 | 8.0 | 25.7 | 0.00 | 0.00 | 0.00 | 88 | 1016.5 |
| 20260506044314 | 15 | 191 | 6.4 | 27.4 | 0.00 | 0.00 | 0.00 | 88 | 1016.4 |
| 20260506043810 | 14 | 241 | 9.7 | 22.5 | 0.00 | 0.00 | 0.00 | 88 | 1016.4 |
| 20260506043308 | 14 | 239 | 11.3 | 16.1 | 0.00 | 0.00 | 0.00 | 88 | 1016.5 |
| 20260506042806 | 15 | 215 | 14.5 | 24.1 | 0.00 | 0.00 | 0.00 | 88 | 1016.5 |
| 20260506042305 | 15 | 200 | 6.4 | 25.7 | 0.00 | 0.00 | 0.00 | 87 | 1016.6 |
| 20260506041803 | 15 | 243 | 4.8 | 24.1 | 0.00 | 0.00 | 0.00 | 87 | 1016.5 |
| 20260506041259 | 15 | 214 | 8.0 | 25.7 | 0.00 | 0.00 | 0.00 | 87 | 1016.7 |
| 20260506040757 | 15 | 210 | 11.3 | 20.9 | 0.00 | 0.00 | 0.00 | 87 | 1016.6 |
| 20260506040254 | 14 | 216 | 12.9 | 25.7 | 0.00 | 0.00 | 0.00 | 87 | 1016.6 |
| 20260506035751 | 14 | 224 | 9.7 | 16.1 | 0.00 | 0.00 | 0.00 | 88 | 1016.9 |
| 20260506035248 | 14 | 160 | 9.7 | 14.5 | 0.00 | 0.00 | 0.00 | 87 | 1016.7 |
| 20260506034744 | 14 | 256 | 12.9 | 20.9 | 0.00 | 0.00 | 0.00 | 87 | 1016.7 |
| 20260506034242 | 14 | 215 | 11.3 | 16.1 | 0.00 | 0.00 | 0.00 | 87 | 1016.8 |
| 20260506033739 | 14 | 220 | 6.4 | 22.5 | 0.00 | 0.00 | 0.00 | 87 | 1016.7 |
| 20260506033236 | 14 | 215 | 11.3 | 14.5 | 0.00 | 0.00 | 0.00 | 87 | 1016.6 |
| 20260506032732 | 14 | 176 | 16.1 | 25.7 | 0.00 | 0.00 | 0.00 | 86 | 1016.8 |
| 20260506032229 | 14 | 205 | 6.4 | 9.7 | 0.00 | 0.00 | 0.00 | 86 | 1016.8 |
| 20260506031725 | 14 | 222 | 11.3 | 16.1 | 0.00 | 0.00 | 0.00 | 87 | 1016.5 |
| 20260506031223 | 14 | 233 | 6.4 | 16.1 | 0.00 | 0.00 | 0.00 | 87 | 1016.7 |
| 20260506030721 | 14 | 243 | 14.5 | 16.1 | 0.00 | 0.00 | 0.00 | 88 | 1016.6 |
| 20260506030218 | 14 | 218 | 4.8 | 9.7 | 0.00 | 0.00 | 0.00 | 88 | 1016.8 |
| 20260506025715 | 14 | 221 | 3.2 | 27.4 | 0.00 | 0.00 | 0.00 | 87 | 1016.8 |
| 20260506025211 | 15 | 212 | 6.4 | 12.9 | 0.00 | 0.00 | 0.00 | 87 | 1016.6 |
| 20260506024708 | 15 | 240 | 11.3 | 16.1 | 0.00 | 0.00 | 0.00 | 87 | 1016.8 |
| 20260506024205 | 15 | 258 | 9.7 | 12.9 | 0.00 | 0.00 | 0.00 | 87 | 1016.6 |
| 20260506023701 | 15 | 243 | 3.2 | 16.1 | 0.00 | 0.00 | 0.00 | 87 | 1016.6 |
| 20260506023159 | 15 | 220 | 14.5 | 29.0 | 0.00 | 0.00 | 0.00 | 86 | 1016.8 |
| 20260506022655 | 15 | 214 | 8.0 | 22.5 | 0.00 | 0.00 | 0.00 | 86 | 1016.9 |
| 20260506022153 | 15 | 252 | 6.4 | 17.7 | 0.00 | 0.00 | 0.00 | 86 | 1016.8 |
| 20260506021651 | 15 | 200 | 6.4 | 16.1 | 0.00 | 0.00 | 0.00 | 86 | 1016.7 |
| 20260506021148 | 15 | 243 | 8.0 | 16.1 | 0.00 | 0.00 | 0.00 | 86 | 1016.5 |
| 20260506020645 | 15 | 218 | 14.5 | 20.9 | 0.00 | 0.00 | 0.00 | 85 | 1016.7 |
| 20260506020143 | 15 | 264 | 9.7 | 14.5 | 0.00 | 0.00 | 0.00 | 85 | 1016.6 |
| 20260506015640 | 15 | 271 | 8.0 | 20.9 | 0.00 | 0.00 | 0.00 | 85 | 1016.5 |
| 20260506015137 | 15 | 242 | 6.4 | 24.1 | 0.00 | 0.00 | 0.00 | 84 | 1016.5 |
| 20260506014635 | 15 | 227 | 11.3 | 17.7 | 0.00 | 0.00 | 0.00 | 84 | 1016.4 |
| 20260506014130 | 15 | 211 | 6.4 | 20.9 | 0.00 | 0.00 | 0.00 | 84 | 1016.7 |
| 20260506013628 | 15 | 207 | 6.4 | 16.1 | 0.00 | 0.00 | 0.00 | 84 | 1016.3 |
| 20260506013125 | 15 | 183 | 8.0 | 17.7 | 0.00 | 0.00 | 0.00 | 84 | 1016.2 |
| 20260506012621 | 15 | 224 | 16.1 | 20.9 | 0.00 | 0.00 | 0.00 | 84 | 1016.3 |
| 20260506012117 | 15 | 232 | 12.9 | 16.1 | 0.00 | 0.00 | 0.00 | 83 | 1016.2 |
| 20260506011610 | 15 | 196 | 9.7 | 24.1 | 0.00 | 0.00 | 0.00 | 83 | 1016.1 |
| 20260506011106 | 15 | 194 | 20.9 | 25.7 | 0.00 | 0.00 | 0.00 | 82 | 1016.0 |
| 20260506010605 | 15 | 255 | 12.9 | 22.5 | 0.00 | 0.00 | 0.00 | 82 | 1016.1 |
| 20260506005559 | 15 | 199 | 14.5 | 27.4 | 0.00 | 0.00 | 0.00 | 81 | 1016.0 |
| 20260506005055 | 15 | 257 | 8.0 | 16.1 | 0.00 | 0.00 | 0.00 | 81 | 1015.9 |
| 20260506004552 | 15 | 218 | 19.3 | 27.4 | 0.00 | 0.00 | 0.00 | 81 | 1015.7 |
| 20260506004048 | 15 | 235 | 14.5 | 33.8 | 0.00 | 0.00 | 0.00 | 80 | 1015.5 |
| 20260506003545 | 15 | 239 | 14.5 | 29.0 | 0.00 | 0.00 | 0.00 | 80 | 1015.7 |
| 20260506003041 | 15 | 197 | 11.3 | 20.9 | 0.00 | 0.00 | 0.00 | 80 | 1015.6 |
| 20260506002537 | 15 | 203 | 29.0 | 38.6 | 0.00 | 0.00 | 0.00 | 80 | 1015.5 |
| 20260506002033 | 15 | 258 | 9.7 | 25.7 | 0.00 | 0.00 | 0.00 | 80 | 1015.3 |
| 20260506001530 | 15 | 234 | 8.0 | 27.4 | 0.00 | 0.00 | 0.00 | 80 | 1015.6 |
| 20260506001027 | 15 | 198 | 25.7 | 40.2 | 0.00 | 0.00 | 0.00 | 81 | 1015.6 |
| 20260506000525 | 15 | 218 | 12.9 | 24.1 | 0.00 | 0.00 | 0.00 | 81 | 1015.4 |
| 20260506000022 | 15 | 206 | 17.7 | 30.6 | 0.00 | 0.00 | 0.00 | 81 | 1015.2 |
| 20260505235520 | 15 | 170 | 14.5 | 27.4 | 0.00 | 0.00 | 0.00 | 81 | 1015.2 |
| 20260505235016 | 15 | 217 | 20.9 | 27.4 | 0.00 | 0.00 | 0.00 | 82 | 1015.4 |
| 20260505234513 | 15 | 196 | 16.1 | 20.9 | 0.00 | 0.00 | 0.00 | 82 | 1015.2 |
| 20260505234010 | 15 | 212 | 12.9 | 22.5 | 0.00 | 0.00 | 0.00 | 81 | 1015.1 |
| 20260505233508 | 15 | 194 | 14.5 | 24.1 | 0.00 | 0.00 | 0.00 | 82 | 1014.7 |
| 20260505233005 | 15 | 208 | 14.5 | 24.1 | 0.00 | 0.00 | 0.00 | 82 | 1014.7 |
| 20260505232503 | 15 | 219 | 8.0 | 20.9 | 0.00 | 0.00 | 0.00 | 81 | 1014.6 |
| 20260505232000 | 15 | 245 | 8.0 | 16.1 | 0.00 | 0.00 | 0.00 | 81 | 1014.7 |
| 20260505231457 | 15 | 203 | 14.5 | 27.4 | 0.00 | 0.00 | 0.00 | 81 | 1014.5 |
| 20260505230955 | 15 | 199 | 8.0 | 25.7 | 0.00 | 0.00 | 0.00 | 81 | 1014.5 |
| 20260505230452 | 15 | 230 | 12.9 | 22.5 | 0.00 | 0.00 | 0.00 | 81 | 1014.5 |
| 20260505225948 | 15 | 185 | 14.5 | 20.9 | 0.00 | 0.00 | 0.00 | 81 | 1014.6 |
| 20260505225446 | 15 | 292 | 14.5 | 27.4 | 0.00 | 0.00 | 0.00 | 80 | 1014.6 |
| 20260505224942 | 15 | 217 | 16.1 | 22.5 | 0.00 | 0.00 | 0.00 | 80 | 1014.3 |
| 20260505224439 | 16 | 216 | 8.0 | 22.5 | 0.00 | 0.00 | 0.00 | 80 | 1014.2 |
| 20260505223936 | 16 | 224 | 16.1 | 25.7 | 0.00 | 0.00 | 0.00 | 79 | 1014.1 |
| 20260505223433 | 16 | 241 | 14.5 | 33.8 | 0.00 | 0.00 | 0.00 | 79 | 1014.4 |
| 20260505222929 | 16 | 233 | 14.5 | 22.5 | 0.00 | 0.00 | 0.00 | 79 | 1014.3 |
| 20260505222425 | 16 | 181 | 12.9 | 17.7 | 0.00 | 0.00 | 0.00 | 78 | 1014.2 |
| 20260505221921 | 16 | 204 | 14.5 | 24.1 | 0.00 | 0.00 | 0.00 | 78 | 1014.2 |
| 20260505221419 | 16 | 219 | 12.9 | 24.1 | 0.00 | 0.00 | 0.00 | 78 | 1014.0 |
| 20260505220916 | 16 | 221 | 19.3 | 27.4 | 0.00 | 0.00 | 0.00 | 78 | 1014.1 |
| 20260505220413 | 16 | 156 | 16.1 | 22.5 | 0.00 | 0.00 | 0.00 | 79 | 1014.1 |
| 20260505215911 | 16 | 226 | 12.9 | 24.1 | 0.00 | 0.00 | 0.00 | 79 | 1014.3 |
| 20260505215408 | 15 | 124 | 6.4 | 24.1 | 0.00 | 0.00 | 0.00 | 79 | 1014.2 |
| 20260505214906 | 15 | 269 | 14.5 | 20.9 | 0.00 | 0.00 | 0.00 | 80 | 1014.3 |
| 20260505214403 | 16 | 263 | 8.0 | 27.4 | 0.00 | 0.00 | 0.00 | 79 | 1014.0 |
| 20260505213900 | 16 | 184 | 11.3 | 24.1 | 0.00 | 0.00 | 0.00 | 79 | 1014.0 |
| 20260505213358 | 16 | 232 | 14.5 | 24.1 | 0.00 | 0.00 | 0.00 | 78 | 1014.0 |
| 20260505212854 | 16 | 218 | 12.9 | 24.1 | 0.00 | 0.00 | 0.00 | 78 | 1013.9 |
| 20260505212351 | 16 | 211 | 16.1 | 24.1 | 0.00 | 0.00 | 0.00 | 77 | 1013.7 |
| 20260505211847 | 16 | 203 | 14.5 | 25.7 | 0.00 | 0.00 | 0.00 | 77 | 1013.7 |
| 20260505211345 | 16 | 196 | 8.0 | 24.1 | 0.00 | 0.00 | 0.00 | 77 | 1013.8 |
| 20260505210841 | 16 | 250 | 17.7 | 37.0 | 0.00 | 0.00 | 0.00 | 78 | 1013.7 |
| 20260505210339 | 16 | 172 | 9.7 | 22.5 | 0.00 | 0.00 | 0.00 | 77 | 1013.9 |
| 20260505205835 | 16 | 240 | 11.3 | 29.0 | 0.00 | 0.00 | 0.00 | 77 | 1013.6 |
| 20260505205334 | 16 | 237 | 9.7 | 20.9 | 0.00 | 0.00 | 0.00 | 76 | 1013.7 |
| 20260505204830 | 17 | 232 | 12.9 | 22.5 | 0.00 | 0.00 | 0.00 | 76 | 1013.7 |
| 20260505204328 | 17 | 202 | 16.1 | 25.7 | 0.00 | 0.00 | 0.00 | 75 | 1013.7 |
| 20260505203825 | 16 | 208 | 14.5 | 24.1 | 0.00 | 0.00 | 0.00 | 76 | 1013.7 |
| 20260505203321 | 17 | 228 | 9.7 | 14.5 | 0.00 | 0.00 | 0.00 | 75 | 1013.8 |
| 20260505202818 | 17 | 224 | 11.3 | 17.7 | 0.00 | 0.00 | 0.00 | 74 | 1013.8 |
| 20260505202314 | 17 | 247 | 8.0 | 20.9 | 0.00 | 0.00 | 0.00 | 74 | 1014.0 |
| 20260505201811 | 17 | 126 | 9.7 | 17.7 | 0.00 | 0.00 | 0.00 | 75 | 1013.9 |
| 20260505201308 | 16 | 249 | 4.8 | 16.1 | 0.00 | 0.00 | 0.00 | 77 | 1014.3 |
| 20260505200807 | 16 | 195 | 12.9 | 25.7 | 0.00 | 0.00 | 0.00 | 77 | 1014.2 |
| 20260505200303 | 16 | 253 | 4.8 | 9.7 | 0.00 | 0.00 | 0.00 | 78 | 1014.3 |
| 20260505195758 | 16 | 216 | 6.4 | 12.9 | 0.00 | 0.00 | 0.00 | 77 | 1014.5 |
| 20260505195256 | 16 | 213 | 3.2 | 17.7 | 0.00 | 0.00 | 0.00 | 78 | 1014.4 |
| 20260505194753 | 17 | 245 | 12.9 | 16.1 | 0.00 | 0.00 | 0.00 | 76 | 1014.6 |
| 20260505194250 | 17 | 187 | 0.0 | 17.7 | 0.00 | 0.00 | 0.00 | 78 | 1014.5 |
| 20260505193745 | 17 | 251 | 9.7 | 14.5 | 0.00 | 0.00 | 0.00 | 76 | 1014.7 |
| 20260505193243 | 17 | 241 | 6.4 | 12.9 | 0.00 | 0.00 | 0.00 | 76 | 1014.8 |